Location: B�ttelbronn
(48.8925°N, 10.8969°E)
Time: 08:39:50
(UTC+00:00)

Daily predictions for brighter satellites

Satellite Brightness Start Highest point End
(mag) Time Altitude Azimuth Time Altitude Azimuth Time Altitude Azimuth
Cosmos 968 Rocket 3.5 19:12:51 10° S 19:18:02 65° ESE 19:23:13 10° NNE
ATLAS 2AS CENTAUR R/B 4.4 19:13:03 10° NW 19:19:34 29° NNE 19:25:43 10° ENE
Cosmos 1606 2.6 19:16:31 10° S 19:20:17 79° E 19:24:05 10° NNE
Cosmos 1844 Rocket 2.7 19:15:06 10° S 19:20:32 59° ESE 19:26:02 10° NE
Resurs 01 Rocket 2.0 19:16:45 10° SE 19:21:03 50° ENE 19:25:21 10° N
SPOT 3 Rocket 3.9 19:19:18 10° SE 19:24:17 53° ENE 19:29:18 10° N
Cosmos 1486 Rocket 4.0 19:24:50 10° S 19:30:06 67° ESE 19:35:25 10° NNE
CZ-4C R/B 3.5 19:23:37 10° NW 19:30:15 49° NE 19:38:04 10° ESE
USA 307 4.0 19:26:48 10° WNW 19:30:53 43° N 19:34:59 10° E
ERS-2 3.7 19:28:47 10° N 19:32:14 41° WNW 19:35:39 10° SW
SL-4 R/B 3.5 19:30:39 10° W 19:34:29 30° SW 19:38:32 10° SSE
USA 215 4.4 19:29:44 10° ENE 19:35:52 45° N 19:42:00 10° WNW
Cosmos 1151 Rocket 3.9 19:33:47 10° SSE 19:37:35 30° E 19:41:26 10° NNE
ATLAS 5 CENTAUR R/B 2.4 19:35:27 10° NW 19:40:55 83° NE 19:47:08 11° SE
CREW DRAGON DEMO-1 DEB 3.5 19:38:47 10° WNW 19:41:21 43° N 19:43:54 10° ENE
OBJECT-B 3.0 19:40:53 10° SSW 19:43:38 25° W 19:46:23 10° NW
Cosmos 1844 3.7 19:38:17 10° SSW 19:43:59 72° ESE 19:49:39 10° NNE
USA 308 3.9 19:40:20 10° WNW 19:44:28 45° N 19:48:37 10° E
Cosmos 2084 4.5 19:47:58 10° S 19:51:16 23° ESE 19:54:38 10° ENE
Cosmos 1833 Rocket 3.5 19:47:44 10° NNW 19:53:04 40° NE 19:57:45 13° ESE
Cosmos 773 Rocket 4.4 19:49:14 10° NNW 19:54:27 54° ENE 19:58:50 14° SE
Intercosmos 24 3.6 19:51:03 10° S 19:54:48 89° ESE 19:58:24 10° N
Cosmos 1242 Rocket 2.4 19:53:58 10° S 19:57:32 69° E 20:01:05 10° NNE
Cosmos 1666 4.4 19:55:21 10° NNE 19:58:08 19° ENE 20:00:05 14° ESE
Cosmos 1805 Rocket 4.3 19:54:58 10° NNW 19:59:12 51° W 20:03:25 10° S
Spot 2 Rocket 3.8 19:56:46 14° SE 20:01:00 51° ENE 20:05:54 10° N
Meteor 1-26 Rocket 4.3 19:56:27 10° S 20:02:02 60° E 20:07:30 10° NNE
SPOT 5 3.8 20:01:56 15° SE 20:05:42 39° ENE 20:10:35 10° N
Cosmos 1633 Rocket 3.0 20:02:35 10° N 20:07:00 75° E 20:10:43 14° SSE
Meteor 1-14 Rocket 4.5 20:01:44 10° N 20:07:35 60° ENE 20:12:15 16° SSE
CZ-2C R/B 3.7 20:03:19 10° NNE 20:07:47 64° ESE 20:12:16 10° S
BREEZE-M DEB (TANK) 4.1 19:52:57 10° WSW 20:08:03 88° SSE 20:11:44 10° ENE
ARIANE 5 R/B 2.9 20:06:12 17° SE 20:09:23 53° ENE 20:13:37 10° N
Terra 3.0 20:06:40 15° ESE 20:09:48 29° ENE 20:13:55 10° N
USA 290 3.5 20:09:10 10° NW 20:12:12 37° WSW 20:14:51 12° S
ERS-1 Rocket 3.5 20:10:41 17° SE 20:14:14 45° ENE 20:19:03 10° N
IGS 5A 4.1 20:11:23 10° S 20:15:27 54° W 20:19:32 10° NNW
Cosmos 1470 Rocket 3.8 20:12:46 10° N 20:17:12 56° ENE 20:20:10 20° SSE
Cosmos 1328 Rocket 3.6 20:14:51 12° S 20:18:56 64° E 20:23:19 10° NNE
Cosmos 1437 2.7 20:17:58 26° SSE 20:19:11 46° E 20:21:56 10° NNE
Cosmos 1709 Rocket 4.0 20:13:13 10° N 20:19:22 82° W 20:25:15 11° S
Cosmos 1933 4.0 20:16:01 10° SSW 20:19:59 56° WNW 20:23:59 10° N
Cosmos 1503 Rocket 4.1 20:15:58 10° SSW 20:21:07 82° WNW 20:26:23 10° NNE
X-37B 1.6 20:20:35 10° WSW 20:23:26 30° SSW 20:24:16 26° SSE
Cosmos 1777 Rocket 4.2 20:20:39 11° S 20:25:21 47° ESE 20:30:20 10° NNE
USA 305 3.3 20:21:57 10° WNW 20:26:11 60° NNE 20:29:31 16° E
Cosmos 2074 Rocket 4.4 20:20:16 10° N 20:26:22 48° ENE 20:30:31 20° SE
CARTOSAT-1 3.6 20:23:35 21° SSE 20:26:26 71° ENE 20:30:44 10° N
Cosmos 1500 3.1 20:24:12 10° N 20:27:59 78° ENE 20:30:08 24° SSE
Cosmos 2082 Rocket 3.0 20:23:13 10° NNW 20:28:30 39° NE 20:32:17 18° ESE
COSMOS 2406 3.3 20:23:13 10° NNW 20:28:53 68° ENE 20:32:38 22° SE
Cosmos 1933 Rocket 3.8 20:27:24 10° N 20:31:39 52° ENE 20:33:54 25° SE
Cosmos 1666 Rocket 4.3 20:29:13 10° NNW 20:33:29 49° W 20:37:21 12° SSW
Meteor 2-6 Rocket 4.4 20:31:35 19° SSE 20:35:16 51° E 20:40:36 10° NNE
Cosmos 2315 Rocket 4.2 20:33:13 10° SSW 20:39:35 79° W 20:46:01 10° N
SWARM C 4.4 20:36:51 10° N 20:40:12 87° E 20:41:40 31° S
SWARM A 4.1 20:36:58 10° N 20:40:18 90° W 20:41:49 30° S
Cosmos 1782 3.3 20:36:38 10° SSW 20:40:36 60° WNW 20:44:33 10° N
USA 245 3.4 20:42:52 27° SW 20:43:28 32° W 20:45:32 10° NNW
USA 306 3.1 20:41:09 10° WNW 20:45:25 71° NNE 20:47:58 23° ESE
Cosmos 1271 Rocket 3.4 20:46:42 32° SE 20:47:49 39° E 20:51:35 10° NNE
SPOT 1/Viking Rocket 4.3 20:45:30 14° S 20:49:46 50° W 20:54:50 10° NNW
SJ 16-02 1.7 20:52:11 31° SSE 20:53:46 45° ESE 20:58:02 10° NNE
Meteor 1-11 Rocket 4.1 20:48:41 10° N 20:54:36 58° ENE 20:57:46 27° SE
Cosmos 2278 Rocket 2.2 20:50:05 15° S 20:54:40 59° ESE 21:00:14 10° NE
Resurs 01 Rocket 3.8 20:54:29 10° SW 20:57:49 20° W 21:01:09 10° NW
NOSS 3-4 (A) 3.9 20:51:38 10° NW 20:58:31 74° NE 21:03:32 23° SE
NOSS 3-4 (C) 3.9 20:51:45 10° NW 20:58:38 73° NE 21:03:39 23° SE
Cosmos 2228 Rocket 3.5 21:01:58 35° SE 21:03:16 46° E 21:07:32 10° NNE
H-2A R/B 3.6 20:59:08 10° NNE 21:03:17 57° E 21:04:39 37° SSE
Cosmos 1340 Rocket 4.0 21:03:13 10° N 21:06:52 30° ENE 21:07:52 26° E
NOSS 3-3 (A) 4.0 21:02:39 10° SW 21:08:29 80° NW 21:15:14 10° NE
NOSS 3-3 (C) 4.0 21:02:45 10° SW 21:08:36 81° NW 21:15:20 10° NE
USA 307 2.8 21:06:54 10° WNW 21:11:12 89° NNE 21:12:48 38° ESE
Cosmos 1943 Rocket 3.8 21:11:10 17° E 21:11:13 17° E 21:14:39 10° ENE
ATLAS 2AS CENTAUR R/B 3.2 21:04:41 10° NW 21:12:07 59° NE 21:16:52 21° ESE
CREW DRAGON DEMO-1 DEB 3.2 21:13:11 10° WNW 21:15:13 47° W 21:15:13 47° W
USA 215 4.0 21:11:59 10° E 21:18:14 50° NNE 21:24:30 10° WNW
Cosmos 1536 3.0 21:14:29 10° N 21:18:30 59° ENE 21:19:22 46° SE
BREEZE-M R/B 2.0 21:16:17 10° W 21:18:26 66° WNW 21:18:26 66° WNW
Cosmos 1812 3.6 21:16:50 21° SW 21:19:08 47° WNW 21:22:54 10° N
CZ-4C R/B 3.2 21:12:05 10° NW 21:19:12 60° WSW 21:23:48 27° SSE
Meteor 1-10 Rocket 4.2 21:17:12 25° S 21:20:37 90° W 21:26:19 10° NNE
Iridium 4 Rocket 4.0 21:18:17 23° SSW 21:22:02 72° W 21:27:59 10° N
USA 308 2.8 21:20:25 10° WNW 21:24:43 79° SSW 21:25:49 49° SE
ATLAS 5 CENTAUR R/B 4.0 21:20:44 10° WNW 21:25:18 24° WSW 21:28:41 16° SSW
Cosmos 2084 4.1 21:26:22 10° WSW 21:30:27 54° NW 21:34:40 10° NE
Cosmos 158 Rocket 3.8 21:26:07 10° NNW 21:31:00 74° WSW 21:32:38 42° S
SL-24 DEB 4.2 21:30:18 40° S 21:31:56 79° W 21:36:34 10° N
Cosmos 1666 3.8 21:30:23 10° NNW 21:33:48 35° W 21:34:56 28° SW
Cosmos 1833 Rocket 3.5 21:31:46 10° NW 21:37:01 41° WSW 21:39:27 27° SSW
Cosmos 1869 Rocket 3.6 21:35:52 10° NNW 21:40:12 73° W 21:41:16 49° SSW
Cosmos 1743 2.8 21:38:37 10° N 21:42:26 57° ENE 21:42:43 55° E
SPOT 5 4.2 21:41:10 21° SW 21:43:48 34° W 21:48:34 10° NNW
Cosmos 1680 Rocket 3.5 21:38:42 10° NNW 21:44:04 81° ENE 21:45:47 44° SSE
Cosmos 1937 Rocket 4.2 21:45:55 34° ESE 21:46:18 35° ESE 21:50:58 10° NE
ERBS 4.2 21:43:41 10° NW 21:46:35 27° NNE 21:48:11 19° ENE
Terra 2.8 21:45:33 28° SW 21:47:25 39° W 21:51:54 10° NNW
SL-8 Rocket 4.3 21:43:08 10° N 21:49:22 55° ENE 21:51:47 35° SE
Cosmos 2297 4.1 21:50:18 40° SE 21:51:18 44° ESE 21:56:41 10° NE
Cosmos 1818 4.1 21:48:18 10° NNW 21:53:42 53° NE 21:56:16 29° ESE
Cosmos 2154 Rocket 4.3 21:51:02 10° NNW 21:57:15 60° W 22:00:11 32° SSW
Cosmos 1707 Rocket 3.4 21:59:37 64° SSE 22:00:11 76° E 22:04:36 10° NNE
ALOS 2 3.4 21:59:29 34° E 22:00:21 38° ENE 22:04:26 10° N
Spot 4 3.9 22:01:02 51° SE 22:02:11 71° ENE 22:07:02 10° N
USA 305 3.6 22:02:02 10° WNW 22:05:35 40° WSW 22:05:35 40° WSW
Cosmos 2082 Rocket 2.9 22:07:24 10° NW 22:12:37 41° WSW 22:14:07 34° SW
Cosmos 962 Rocket 4.5 22:08:46 10° NNW 22:14:53 73° W 22:17:03 42° SSW
Meteor 1-27 Rocket 4.3 22:12:02 27° SW 22:15:08 56° WNW 22:20:58 10° N
Cosmos 44 3.4 22:11:37 10° NW 22:17:06 86° SW 22:18:21 54° SSE
Cosmos 1959 Rocket 4.5 22:14:18 10° N 22:20:35 74° E 22:22:35 45° SSE
Cosmos 1898 Rocket 3.4 22:20:54 48° SSW 22:22:26 89° WNW 22:27:49 10° NNE
USA 306 4.3 22:21:21 10° WNW 22:24:02 27° WSW 22:24:02 27° WSW
Gbstr 26 Del rocket 4.0 22:23:22 10° WNW 22:30:44 89° NNE 22:34:28 26° ESE
Cosmos 1733 Rocket 3.1 22:27:44 10° NNW 22:32:01 62° W 22:32:19 60° WSW
SJ 16-02 3.4 22:29:06 11° WSW 22:32:34 24° NW 22:36:12 10° N
Meteor 1-19 Rocket 4.0 22:33:41 56° S 22:34:53 81° E 22:40:18 10° NNE
Cosmos 2181 Rocket 3.9 22:34:45 46° S 22:36:43 89° W 22:42:54 10° N
Cosmos 1238 Rocket 4.0 22:32:00 10° NNW 22:38:18 66° W 22:39:54 46° SSW
Cosmos 1515 4.1 22:38:29 55° WNW 22:38:29 55° WNW 22:42:11 10° N
Cosmos 2278 Rocket 3.9 22:34:12 10° WSW 22:39:08 30° NW 22:44:05 10° NNE
Okean 1 3.5 22:40:56 63° W 22:41:02 63° WNW 22:45:00 10° N
Cosmos 1340 Rocket 4.3 22:39:46 10° NW 22:43:14 27° W 22:43:27 27° W
Cosmos 1908 Rocket 3.6 22:40:22 10° N 22:44:51 70° ENE 22:45:11 66° ESE
Cosmos 2366 rocket 4.0 22:41:38 10° NNW 22:47:47 73° W 22:49:36 47° SSW
Cosmos 2369 Rocket 2.4 22:48:04 47° SE 22:48:42 50° ESE 22:54:09 10° NE
Cosmos 1821 Rocket 4.4 22:42:44 10° N 22:49:03 57° ENE 22:51:18 39° SE
SAR-Lupe-2 4.0 22:46:16 10° NNE 22:49:14 57° NE 22:49:14 57° NE
Cosmos 372 Rocket 3.8 22:49:28 62° SSE 22:50:02 68° ESE 22:55:07 10° NNE
Cosmos 967 Rocket 4.4 22:49:55 39° SW 22:52:30 88° NW 22:58:50 10° NE
Nimbus 7 Rocket 4.4 22:47:56 10° NNE 22:53:48 66° ESE 22:55:12 50° SSE
Cosmos 1943 Rocket 2.1 22:52:39 50° SSW 22:54:13 86° WNW 22:59:52 10° NNE
SeaSat 1 3.2 22:50:37 10° NE 22:55:08 37° ESE 22:55:08 37° ESE
Meteor 2-9 Rocket 4.5 22:49:31 10° NNW 22:55:14 59° W 22:56:34 47° SW
Cosmos 1461 3.3 22:58:11 58° ESE 22:58:11 58° ESE 23:02:30 10° NE
USA 215 3.1 22:57:12 28° SE 23:01:00 87° SSW 23:07:36 10° NW
ATLAS 2AS CENTAUR R/B 3.2 22:56:07 10° NW 23:02:51 42° WSW 23:04:17 37° SW
Cosmos 2218 Rocket 4.4 23:01:09 10° NNW 23:07:11 52° W 23:09:04 39° SW
RESURS DK-1 2.9 23:03:08 10° NNW 23:07:14 53° NE 23:07:43 49° E
Cosmos 1975 3.5 23:04:45 10° NNW 23:08:17 44° W 23:08:17 44° W
Cosmos 2263 4.4 23:09:34 49° SE 23:10:26 54° ESE 23:16:05 10° NE
Meteor 2-4 Rocket 3.7 23:09:23 54° SSW 23:10:47 88° W 23:16:29 10° NNE
Meteor 1-12 Rocket 4.5 23:05:21 10° N 23:11:15 66° ENE 23:12:58 45° SE
ISS -1.0 23:17:26 13° ENE 23:17:26 13° ENE 23:17:51 10° ENE
Cosmos 1703 Rocket 3.4 23:14:30 84° SSE 23:14:36 86° ESE 23:19:02 10° N
Cosmos 1782 Rocket 3.4 23:11:55 10° N 23:16:24 81° E 23:16:38 77° SE
Cosmos 1656 Rocket 3.8 23:17:56 50° SE 23:18:36 54° ESE 23:23:59 10° NE
ERBS 4.3 23:19:39 10° WNW 23:20:56 21° WNW 23:20:56 21° WNW
Nadezhda 3 Rocket 3.9 23:28:06 49° S 23:29:56 86° E 23:36:11 10° N
CZ-2D R/B 4.3 23:27:20 10° NE 23:30:17 15° E 23:32:26 12° ESE
Cosmos 1833 4.1 23:27:26 10° NNW 23:33:13 87° WSW 23:34:47 51° SSE
ATLAS CENTAUR R/B 2.7 23:34:53 26° E 23:34:53 26° E 23:37:05 10° NE
Thor Agena Rocket 3.6 23:30:14 10° NNE 23:35:28 75° WNW 23:36:39 54° SW
Okean 3 3.4 23:35:42 75° ESE 23:35:45 75° E 23:40:00 10° NNE
ALOS 2 4.0 23:36:53 25° W 23:36:53 25° W 23:40:28 10° NW
USA 281 3.9 23:32:05 17° ESE 23:37:03 51° NE 23:43:23 10° NNW
Cosmos 1818 4.5 23:32:13 10° NW 23:36:53 33° WSW 23:36:53 33° WSW
Cosmos 1607 4.0 23:36:39 48° S 23:38:23 69° ESE 23:44:51 10° NE
Cosmos 1048 Rocket 4.0 23:33:08 10° NNW 23:38:26 68° WSW 23:39:11 59° SSW
Helios 1A 3.8 23:40:37 39° E 23:41:26 44° ENE 23:45:24 10° N
Cosmos 2298 Rocket 3.9 23:41:55 60° SSW 23:42:57 88° ESE 23:48:17 10° NNE
Okean 1-7 3.4 23:42:48 49° W 23:43:01 50° WNW 23:47:13 10° N
PSLV R/B 3.4 23:40:25 10° NNE 23:44:52 85° ESE 23:45:08 78° S
Cosmos 44 Rocket 3.9 23:42:15 10° NW 23:47:28 60° NE 23:50:23 25° ESE
COSMOS 2487 3.9 23:47:34 10° N 23:50:39 30° ENE 23:51:01 30° ENE
Resurs 1-4 Rocket 3.8 23:47:21 10° NE 23:51:20 21° E 23:53:19 18° ESE
